Weather History for Tanger, Morocco

Change the Weather History Date:

Friday, October 12, 2012

  Actual Average Record
Temperature  
Mean Temperature 70 °F -  
Max Temperature 74 °F 70 °F 87 °F (2011)
Min Temperature 64 °F 55 °F 55 °F (2004)
Cooling Degree Days 5    
Growing Degree Days 20 (Base 50)    
Moisture  
Dew Point 61 °F    
Average Humidity 75    
Maximum Humidity 88    
Minimum Humidity 52    
Precipitation  
Precipitation 0.00 in 0.12 in - ()
Sea Level Pressure  
Sea Level Pressure 30.05 in    
Wind  
Wind Speed 8 mph ()    
Max Wind Speed 13 mph    
Max Gust Speed -    
Visibility 5.2 miles    
Events      
Averages and records for this station are not official NWS values.
T = Trace of Precipitation, MM = Missing Value Source: Averaged Metar Reports

Daily Weather History Graph

Daily Weather History Graph

Search for Another Location

Airport:

Trip Planner

Search our weather history database for the weather conditions in past years. The results will help you decide how hot, cold, wet, or windy it might be!

Date:

Astronomy

Oct. 12, 2012 Rise Set
Actual Time 6:27 AM WET 5:51 PM WET
Civil Twilight 6:02 AM WET 6:17 PM WET
Nautical Twilight 5:32 AM WET 6:46 PM WET
Astronomical Twilight 5:02 AM WET 7:16 PM WET
Moon 3:01 AM WET (10/12) 3:48 PM WET (10/12)
Length of Visible Light 12h 15m
Length of Day
11h 23m
Waning Crescent, 12% of the Moon is Illuminated
Oct 12
Waning Crescent
Oct 15
New
Oct 22
First Quarter
Oct 29
Full
Nov 7
Last Quarter

Hourly Weather History & Observations

Time (WET) Temp. Dew Point Humidity Pressure Visibility Wind Dir Wind Speed Gust Speed Precip Events Conditions
12:00 AM - - %  in 4 mi West 9.2 mph - -   Mostly Cloudy
12:00 AM - - N/A% 30.04 in 3.7 mi West 9.2 mph - N/A   Mostly Cloudy
12:30 AM - - N/A% 30.04 in 3.7 mi West 9.2 mph - N/A   Mostly Cloudy
1:00 AM 68.0 °F 64.4 °F 88% 30.04 in 3.7 mi West 9.2 mph - N/A   Mostly Cloudy
1:30 AM 68.0 °F 64.4 °F 88% 30.04 in 3.7 mi WNW 9.2 mph - N/A   Mostly Cloudy
2:00 AM 68.0 °F 64.4 °F 88% 30.04 in 2.2 mi West 8.1 mph - N/A   Mostly Cloudy
2:30 AM 68.0 °F 62.6 °F 83% 30.04 in - WNW 11.5 mph - N/A   Mostly Cloudy
3:00 AM 67 °F 62 °F 81% 30.03 in 2 mi WNW 8.1 mph - -  
3:00 AM 68.0 °F 62.6 °F 83% 30.01 in - WNW 8.1 mph - N/A   Unknown
4:00 AM 68.0 °F 62.6 °F 83% 30.01 in - WNW 8.1 mph - N/A   Unknown
4:30 AM 66.2 °F 60.8 °F 83% 30.01 in - WNW 5.8 mph - N/A   Unknown
5:00 AM 66.2 °F 60.8 °F 83% 30.04 in 3.7 mi WNW 6.9 mph - N/A   Scattered Clouds
5:30 AM 66.2 °F 62.6 °F 88% 30.04 in 3.7 mi NW 6.9 mph - N/A   Scattered Clouds
6:00 AM 67 °F 62 °F 79% 30.04 in 4 mi NW 6.9 mph - -   Partly Cloudy
6:00 AM 66.2 °F 62.6 °F 88% 30.04 in 3.7 mi NW 6.9 mph - N/A   Scattered Clouds
6:30 AM 66.2 °F 62.6 °F 88% 30.04 in 3.7 mi WNW 5.8 mph - N/A   Mostly Cloudy
7:00 AM 66.2 °F 60.8 °F 83% 30.04 in 5.0 mi WNW 4.6 mph - N/A   Mostly Cloudy
7:30 AM 66.2 °F 62.6 °F 88% 30.04 in 5.0 mi WNW 6.9 mph - N/A   Mostly Cloudy
8:00 AM 69.8 °F 62.6 °F 78% 30.06 in 5.0 mi WNW 8.1 mph - N/A   Mostly Cloudy
8:30 AM 69.8 °F 62.6 °F 78% 30.06 in 6.2 mi West 9.2 mph - N/A   Scattered Clouds
9:00 AM 72 °F 64 °F 68% 30.09 in 6 mi West 9.2 mph - -   Partly Cloudy
9:00 AM 71.6 °F 64.4 °F 78% 30.06 in 6.2 mi West 9.2 mph - N/A   Scattered Clouds
10:00 AM 71.6 °F 62.6 °F 73% 30.09 in 6.2 mi NW 11.5 mph - N/A   Scattered Clouds
10:30 AM 71.6 °F 62.6 °F 73% 30.09 in 6.2 mi WNW 11.5 mph - N/A   Scattered Clouds
11:00 AM 71.6 °F 60.8 °F 69% 30.09 in 6.2 mi NW 11.5 mph - N/A   Partly Cloudy
11:30 AM 73.4 °F 62.6 °F 69% 30.09 in 6.2 mi NW 11.5 mph - N/A   Partly Cloudy
12:00 PM 73 °F 62 °F 61% 30.09 in 9 mi NW 12.7 mph - -   Mostly Cloudy
12:00 PM 73.4 °F 62.6 °F 69% 30.06 in 6.2 mi NW 12.7 mph - N/A   Partly Cloudy
12:30 PM 73.4 °F 60.8 °F 65% 30.06 in 6.2 mi NW 11.5 mph - N/A   Partly Cloudy
1:00 PM 73.4 °F 60.8 °F 65% 30.06 in 6.2 mi WNW 11.5 mph - N/A   Partly Cloudy
1:30 PM 73.4 °F 60.8 °F 65% 30.06 in 6.2 mi NW 11.5 mph - N/A   Partly Cloudy
2:00 PM 73.4 °F 60.8 °F 65% 30.06 in 6.2 mi WNW 11.5 mph - N/A   Partly Cloudy
3:00 PM 73 °F 59 °F 52% 30.06 in 6 mi West 12.7 mph - -   Mostly Cloudy
3:00 PM 73.4 °F 59.0 °F 61% 30.04 in 6.2 mi West 12.7 mph - N/A   Mostly Cloudy
4:00 PM 71.6 °F 59.0 °F 64% 30.04 in 6.2 mi West 11.5 mph - N/A   Mostly Cloudy
5:00 PM 69.8 °F 59.0 °F 68% 30.04 in 6.2 mi West 11.5 mph - N/A   Mostly Cloudy
6:00 PM 68 °F 58 °F 62% 30.07 in 6 mi West 11.5 mph - -   Mostly Cloudy
6:00 PM 68.0 °F 57.2 °F 68% 30.06 in 6.2 mi West 11.5 mph - N/A   Mostly Cloudy
7:00 PM 66.2 °F 57.2 °F 73% 30.06 in 6.2 mi West 9.2 mph - N/A   Scattered Clouds
8:00 PM 66.2 °F 57.2 °F 73% 30.06 in 6.2 mi West 8.1 mph - N/A   Scattered Clouds
9:00 PM 66 °F 57 °F 66% 30.09 in 5 mi WNW 8.1 mph - -   Mostly Cloudy
9:00 PM 66.2 °F 57.2 °F 73% 30.06 in 5.0 mi WNW 8.1 mph - N/A   Mostly Cloudy
9:30 PM 66.2 °F 59.0 °F 78% 30.06 in 5.0 mi WNW 8.1 mph - N/A   Mostly Cloudy
10:00 PM 66.2 °F 59.0 °F 78% 30.06 in 5.0 mi West 8.1 mph - N/A   Mostly Cloudy
10:30 PM 66.2 °F 59.0 °F 78% 30.06 in 5.0 mi WNW 8.1 mph - N/A   Mostly Cloudy
11:00 PM 66.2 °F 59.0 °F 78% 30.06 in 5.0 mi WNW 5.8 mph - N/A   Mostly Cloudy
11:30 PM 64.4 °F 59.0 °F 83% 30.06 in 5.0 mi West 6.9 mph - N/A   Mostly Cloudy